N8VDS-10 Weather Reports


time (UTC)temp
C
wind
direction
speed
KPH
gust
KPH
rain 1hr
cm
rain 24hr
cm
rain mn
cm
humidity
%
barometer
mb
20260510204148 13 279 4.8 4.8 0.00 0.00 0.00 32 1021.3
20260510203645 13 280 9.7 11.3 0.00 0.00 0.00 31 1021.5
20260510203143 13 222 12.9 19.3 0.00 0.00 0.00 30 1021.6
20260510202642 13 294 4.8 14.5 0.00 0.00 0.00 31 1021.5
20260510202138 13 293 9.7 14.5 0.00 0.00 0.00 31 1021.7
20260510201636 13 218 8.0 14.5 0.00 0.00 0.00 33 1021.5
20260510201132 13 276 9.7 11.3 0.00 0.00 0.00 32 1021.7
20260510200629 13 251 8.0 11.3 0.00 0.00 0.00 31 1021.6
20260510200127 13 300 8.0 14.5 0.00 0.00 0.00 31 1021.8
20260510195623 13 285 14.5 19.3 0.00 0.00 0.00 31 1021.8
20260510195114 13 247 12.9 16.1 0.00 0.00 0.00 31 1021.8
20260510194614 13 220 4.8 8.0 0.00 0.00 0.00 32 1021.9
20260510194111 12 280 4.8 8.0 0.00 0.00 0.00 31 1021.8
20260510193610 12 223 4.8 4.8 0.00 0.00 0.00 34 1022.0
20260510193106 13 205 3.2 3.2 0.00 0.00 0.00 33 1021.9
20260510192601 12 208 3.2 3.2 0.00 0.00 0.00 33 1022.1
20260510192057 13 238 0.0 3.2 0.00 0.00 0.00 33 1021.9
20260510191553 12 265 11.3 16.1 0.00 0.00 0.00 32 1022.0
20260510191051 13 287 20.9 30.6 0.00 0.00 0.00 32 1022.0
20260510190548 12 254 4.8 4.8 0.00 0.00 0.00 33 1022.0
20260510190046 12 238 6.4 8.0 0.00 0.00 0.00 32 1022.0
20260510185542 13 221 17.7 22.5 0.00 0.00 0.00 32 1022.0
20260510185039 13 287 16.1 30.6 0.00 0.00 0.00 32 1022.0
20260510184537 13 258 17.7 24.1 0.00 0.00 0.00 32 1022.2
20260510184031 13 197 8.0 11.3 0.00 0.00 0.00 33 1021.9
20260510183527 13 183 6.4 8.0 0.00 0.00 0.00 31 1021.9
20260510183023 13 214 3.2 4.8 0.00 0.00 0.00 32 1021.7
20260510182514 14 215 6.4 8.0 0.00 0.00 0.00 33 1021.8
20260510182009 15 191 3.2 3.2 0.00 0.00 0.00 30 1021.7
20260510181508 13 65 1.6 3.2 0.00 0.00 0.00 31 1021.8
20260510181003 12 302 4.8 8.0 0.00 0.00 0.00 34 1021.6
20260510180500 13 217 12.9 16.1 0.00 0.00 0.00 32 1021.5
20260510175957 13 244 11.3 14.5 0.00 0.00 0.00 31 1021.5
20260510175453 12 288 19.3 27.4 0.00 0.00 0.00 31 1021.5
20260510174948 12 290 8.0 11.3 0.00 0.00 0.00 33 1021.6
20260510174447 13 289 8.0 11.3 0.00 0.00 0.00 33 1021.5
20260510173943 13 216 3.2 3.2 0.00 0.00 0.00 33 1021.4
20260510173439 12 204 0.0 3.2 0.00 0.00 0.00 34 1021.4
20260510172936 12 286 4.8 4.8 0.00 0.00 0.00 33 1021.5
20260510172431 12 242 9.7 11.3 0.00 0.00 0.00 33 1021.4
20260510171928 12 215 6.4 8.0 0.00 0.00 0.00 34 1021.5
20260510171425 12 220 3.2 4.8 0.00 0.00 0.00 34 1021.7
20260510170921 13 207 6.4 8.0 0.00 0.00 0.00 34 1021.9
20260510170418 13 244 9.7 11.3 0.00 0.00 0.00 35 1021.7
20260510165913 13 262 14.5 19.3 0.00 0.00 0.00 35 1021.6
20260510165410 12 227 4.8 4.8 0.00 0.00 0.00 34 1021.7
20260510164908 12 4 11.3 14.5 0.00 0.00 0.00 33 1021.9
20260510164405 13 7 6.4 11.3 0.00 0.00 0.00 33 1021.8
20260510163904 11 317 11.3 16.1 0.00 0.00 0.00 35 1021.7
20260510163402 12 282 8.0 8.0 0.00 0.00 0.00 34 1021.8
20260510162901 12 215 3.2 4.8 0.00 0.00 0.00 34 1021.7
20260510162359 12 257 4.8 11.3 0.00 0.00 0.00 34 1021.8
20260510161854 12 284 6.4 11.3 0.00 0.00 0.00 35 1021.6
20260510161350 12 314 1.6 3.2 0.00 0.00 0.00 33 1021.6
20260510160847 12 289 11.3 19.3 0.00 0.00 0.00 34 1021.8
20260510160345 12 278 11.3 16.1 0.00 0.00 0.00 35 1021.8
20260510155838 12 240 8.0 11.3 0.00 0.00 0.00 34 1021.7
20260510155336 11 246 6.4 11.3 0.00 0.00 0.00 35 1021.8
20260510154832 11 31 9.7 14.5 0.00 0.00 0.00 36 1021.5
20260510154327 11 313 12.9 16.1 0.00 0.00 0.00 37 1021.5
20260510153821 11 236 11.3 11.3 0.00 0.00 0.00 35 1021.6
20260510153318 11 284 11.3 16.1 0.00 0.00 0.00 38 1021.5
20260510152814 11 199 3.2 4.8 0.00 0.00 0.00 39 1021.3
20260510152311 11 220 20.9 24.1 0.00 0.00 0.00 38 1021.3
20260510151808 11 17 11.3 14.5 0.00 0.00 0.00 38 1021.5
20260510151307 11 304 11.3 14.5 0.00 0.00 0.00 38 1021.5
20260510150802 10 311 6.4 11.3 0.00 0.00 0.00 40 1021.2
20260510150258 10 292 9.7 14.5 0.00 0.00 0.00 40 1021.3
20260510145754 11 255 14.5 16.1 0.00 0.00 0.00 40 1021.2
20260510145251 11 218 6.4 8.0 0.00 0.00 0.00 38 1021.3
20260510144747 10 281 12.9 14.5 0.00 0.00 0.00 41 1021.1
20260510144244 10 270 8.0 8.0 0.00 0.00 0.00 41 1021.1
20260510143743 10 280 3.2 4.8 0.00 0.00 0.00 43 1021.1
20260510143240 10 268 12.9 16.1 0.00 0.00 0.00 41 1021.1
20260510142736 10 251 14.5 19.3 0.00 0.00 0.00 42 1021.0
20260510142233 10 271 6.4 8.0 0.00 0.00 0.00 42 1020.8
20260510141730 10 127 8.0 11.3 0.00 0.00 0.00 43 1020.9
20260510141229 10 225 4.8 8.0 0.00 0.00 0.00 41 1020.9
20260510140725 10 254 14.5 16.1 0.00 0.00 0.00 41 1021.1
20260510140220 9 299 11.3 16.1 0.00 0.00 0.00 43 1021.2
20260510135714 10 240 14.5 16.1 0.00 0.00 0.00 42 1020.9
20260510135210 9 210 3.2 8.0 0.00 0.00 0.00 43 1021.0
20260510134708 10 331 6.4 8.0 0.00 0.00 0.00 41 1020.9
20260510134205 10 297 6.4 14.5 0.00 0.00 0.00 42 1020.9
20260510133701 9 206 0.0 0.0 0.00 0.00 0.00 45 1020.8
20260510133156 8 278 6.4 8.0 0.00 0.00 0.00 44 1020.7
20260510132653 9 200 1.6 3.2 0.00 0.00 0.00 42 1020.7
20260510132150 9 272 9.7 11.3 0.00 0.00 0.00 43 1020.8
20260510131648 8 203 1.6 3.2 0.00 0.00 0.00 45 1020.5
20260510131145 9 258 8.0 16.1 0.00 0.00 0.00 42 1020.3
20260510130641 9 192 0.0 0.0 0.00 0.00 0.00 45 1020.4
20260510130138 8 209 0.0 0.0 0.00 0.00 0.00 47 1020.3
20260510125629 8 173 0.0 0.0 0.00 0.00 0.00 45 1020.4
20260510125125 8 197 1.6 3.2 0.00 0.00 0.00 46 1020.5
20260510124622 9 187 1.6 3.2 0.00 0.00 0.00 49 1020.4
20260510124119 8 184 0.0 0.0 0.00 0.00 0.00 52 1020.2
20260510123615 7 237 3.2 4.8 0.00 0.00 0.00 51 1020.4
20260510123111 7 286 4.8 4.8 0.00 0.00 0.00 54 1020.3
20260510122607 7 248 1.6 8.0 0.00 0.00 0.00 59 1020.3
20260510122103 7 253 3.2 4.8 0.00 0.00 0.00 60 1020.1
20260510121600 6 228 3.2 4.8 0.00 0.00 0.00 61 1020.1
20260510121057 6 196 4.8 4.8 0.00 0.00 0.00 62 1019.7
20260510120556 6 205 1.6 3.2 0.00 0.00 0.00 61 1020.0
20260510120056 6 213 1.6 3.2 0.00 0.00 0.00 62 1019.8
20260510115553 5 196 0.0 0.0 0.00 0.00 0.00 63 1019.7
20260510115050 5 233 1.6 3.2 0.00 0.00 0.00 63 1019.8
20260510114546 5 210 3.2 3.2 0.00 0.00 0.00 65 1019.5
20260510114042 5 198 0.0 3.2 0.00 0.00 0.00 67 1019.5
20260510113537 5 204 0.0 0.0 0.00 0.00 0.00 68 1019.5
20260510113035 5 214 0.0 0.0 0.00 0.00 0.00 68 1019.3
20260510112531 5 206 0.0 0.0 0.00 0.00 0.00 68 1019.5
20260510112028 4 201 0.0 0.0 0.00 0.00 0.00 68 1019.4
20260510111525 3 199 0.0 0.0 0.00 0.00 0.00 72 1019.4
20260510111020 3 202 0.0 0.0 0.00 0.00 0.00 74 1019.2
20260510110517 2 203 0.0 0.0 0.00 0.00 0.00 76 1019.1
20260510110013 2 200 0.0 0.0 0.00 0.00 0.00 76 1019.1
20260510105508 2 197 0.0 0.0 0.00 0.00 0.00 75 1019.0
20260510105004 2 197 0.0 0.0 0.00 0.00 0.00 74 1019.1
20260510104500 2 193 0.0 0.0 0.00 0.00 0.00 77 1019.0
20260510103957 2 193 0.0 0.0 0.00 0.00 0.00 77 1018.8
20260510103454 2 193 0.0 0.0 0.00 0.00 0.00 77 1018.8
20260510102949 2 193 0.0 0.0 0.00 0.00 0.00 77 1018.6
20260510102446 2 193 0.0 0.0 0.00 0.00 0.00 77 1018.5
20260510101942 2 193 0.0 0.0 0.00 0.00 0.00 76 1018.5
20260510101440 2 193 0.0 0.0 0.00 0.00 0.00 76 1018.4
20260510100938 2 193 0.0 0.0 0.00 0.00 0.00 75 1018.4
20260510100434 2 195 0.0 0.0 0.00 0.00 0.00 75 1018.5
20260510095931 2 201 0.0 0.0 0.00 0.00 0.00 77 1018.5
20260510095426 2 202 0.0 0.0 0.00 0.00 0.00 77 1018.2
20260510094926 2 202 0.0 0.0 0.00 0.00 0.00 75 1018.2
20260510094420 2 202 0.0 0.0 0.00 0.00 0.00 75 1018.1
20260510093917 2 202 0.0 0.0 0.00 0.00 0.00 73 1018.1
20260510093412 2 202 0.0 0.0 0.00 0.00 0.00 74 1018.1
20260510092909 2 202 0.0 0.0 0.00 0.00 0.00 74 1018.0
20260510092407 3 202 0.0 0.0 0.00 0.00 0.00 73 1018.1
20260510091906 3 202 0.0 0.0 0.00 0.00 0.00 73 1017.9
20260510091404 3 200 0.0 0.0 0.00 0.00 0.00 73 1017.8
20260510090900 3 195 0.0 0.0 0.00 0.00 0.00 72 1017.6
20260510090357 3 195 0.0 0.0 0.00 0.00 0.00 70 1017.6
20260510085853 3 195 0.0 0.0 0.00 0.00 0.00 70 1017.6
20260510085348 3 195 0.0 0.0 0.00 0.00 0.00 69 1017.6
20260510084843 3 195 0.0 0.0 0.00 0.00 0.00 68 1017.4
20260510084341 3 195 0.0 0.0 0.00 0.00 0.00 67 1017.3
20260510083838 3 196 0.0 0.0 0.00 0.00 0.00 68 1017.3
20260510083334 4 203 0.0 0.0 0.00 0.00 0.00 67 1017.2
20260510082829 4 203 0.0 0.0 0.00 0.00 0.00 66 1017.3
20260510082327 4 203 0.0 0.0 0.00 0.00 0.00 66 1017.0
20260510081826 5 198 0.0 0.0 0.00 0.00 0.00 64 1016.9
20260510081322 5 191 0.0 0.0 0.00 0.00 0.00 63 1017.0
20260510080818 5 191 0.0 0.0 0.00 0.00 0.00 63 1016.7
20260510080313 5 213 3.2 3.2 0.00 0.00 0.00 60 1016.9
20260510075811 5 210 0.0 0.0 0.00 0.00 0.00 59 1016.8
20260510075308 6 262 0.0 3.2 0.00 0.00 0.00 59 1016.7
20260510074805 6 206 0.0 0.0 0.00 0.00 0.00 58 1016.5
20260510074302 6 210 0.0 3.2 0.00 0.00 0.00 57 1016.6
20260510073757 6 297 1.6 3.2 0.00 0.00 0.00 57 1016.4
20260510073254 6 311 1.6 3.2 0.00 0.00 0.00 57 1016.4
20260510072749 6 213 0.0 0.0 0.00 0.00 0.00 56 1016.2
20260510072246 6 208 0.0 0.0 0.00 0.00 0.00 56 1016.4
20260510071742 6 194 0.0 0.0 0.00 0.00 0.00 56 1016.1
20260510071239 6 325 6.4 14.5 0.00 0.00 0.00 55 1016.1
20260510070738 7 225 1.6 3.2 0.00 0.00 0.00 55 1016.0
20260510070235 7 315 1.6 3.2 0.00 0.00 0.00 54 1015.9
20260510065735 7 331 4.8 8.0 0.00 0.00 0.00 54 1015.8
20260510065231 7 286 3.2 4.8 0.00 0.00 0.00 55 1015.8
20260510064728 7 248 4.8 4.8 0.00 0.00 0.00 55 1015.7
20260510064226 7 327 3.2 8.0 0.00 0.00 0.00 55 1015.6
20260510063722 7 287 3.2 4.8 0.00 0.00 0.00 55 1015.3
20260510063218 7 267 1.6 3.2 0.00 0.00 0.00 57 1015.2
20260510062715 7 313 3.2 4.8 0.00 0.00 0.00 57 1015.3
20260510062211 7 299 3.2 4.8 0.00 0.00 0.00 57 1015.2
20260510061706 7 307 3.2 4.8 0.00 0.00 0.00 57 1015.2
20260510061204 7 224 4.8 8.0 0.00 0.00 0.00 57 1015.2
20260510060700 7 219 1.6 3.2 0.00 0.00 0.00 57 1015.0
20260510060157 8 213 3.2 4.8 0.00 0.00 0.00 57 1015.1
20260510055653 8 335 3.2 4.8 0.00 0.00 0.00 57 1014.9
20260510055152 8 215 1.6 3.2 0.00 0.00 0.00 57 1015.0
20260510054647 8 12 3.2 3.2 0.00 0.00 0.00 57 1014.7
20260510054143 8 279 3.2 3.2 0.00 0.00 0.00 56 1014.7
20260510053641 8 303 3.2 4.8 0.00 0.00 0.00 55 1014.7
20260510053139 8 331 4.8 4.8 0.00 0.00 0.00 55 1014.7
20260510052635 8 259 3.2 4.8 0.00 0.00 0.00 55 1014.4
20260510052131 8 118 0.0 0.0 0.00 0.00 0.00 56 1014.4
20260510051626 9 125 3.2 4.8 0.00 0.00 0.00 56 1014.4
20260510051123 9 198 3.2 3.2 0.00 0.00 0.00 55 1014.5
20260510050621 10 319 9.7 16.1 0.00 0.00 0.00 55 1014.4
20260510050118 9 339 20.9 30.6 0.00 0.00 0.00 56 1014.2
20260510045615 10 177 0.0 3.2 0.00 0.00 0.00 57 1014.0
20260510045111 10 337 1.6 4.8 0.00 0.00 0.00 57 1014.0
20260510044607 10 224 3.2 3.2 0.00 0.00 0.00 57 1014.0
20260510044105 10 234 1.6 3.2 0.00 0.00 0.00 56 1013.8
20260510043600 10 97 4.8 8.0 0.00 0.00 0.00 56 1013.6
20260510043056 10 216 0.0 0.0 0.00 0.00 0.00 57 1013.6
20260510042555 10 317 0.0 3.2 0.00 0.00 0.00 58 1013.5
20260510042051 10 210 0.0 0.0 0.00 0.00 0.00 58 1013.2
20260510041548 10 201 0.0 0.0 0.00 0.00 0.00 57 1013.3
20260510041045 10 194 0.0 0.0 0.00 0.00 0.00 56 1013.1
20260510040542 10 199 0.0 0.0 0.00 0.00 0.00 56 1012.9
20260510040038 10 199 0.0 0.0 0.00 0.00 0.00 56 1012.9
20260510035534 11 202 0.0 0.0 0.00 0.00 0.00 55 1013.0
20260510035034 11 234 0.0 0.0 0.00 0.00 0.00 55 1012.9
20260510034533 11 6 3.2 4.8 0.00 0.00 0.00 56 1012.8
20260510034029 11 189 0.0 0.0 0.00 0.00 0.00 56 1012.5
20260510033524 11 276 1.6 3.2 0.00 0.00 0.00 56 1012.6
20260510033023 11 182 0.0 0.0 0.00 0.00 0.00 55 1012.6
20260510032519 11 162 0.0 0.0 0.00 0.00 0.00 55 1012.6
20260510032014 11 195 0.0 0.0 0.00 0.00 0.00 54 1012.5
20260510031510 11 199 0.0 0.0 0.00 0.00 0.00 53 1012.3
20260510031006 12 208 0.0 0.0 0.00 0.00 0.00 52 1012.1
20260510030501 12 338 9.7 14.5 0.00 0.00 0.00 51 1012.1
20260510025959 12 89 0.0 3.2 0.00 0.00 0.00 51 1012.0
20260510025456 12 166 0.0 0.0 0.00 0.00 0.00 50 1012.1
20260510024954 12 246 0.0 0.0 0.00 0.00 0.00 48 1011.8
20260510024450 12 295 1.6 3.2 0.00 0.00 0.00 48 1012.0
20260510023945 13 189 3.2 4.8 0.00 0.00 0.00 47 1011.8
20260510023442 13 200 4.8 4.8 0.00 0.00 0.00 47 1011.7
20260510022939 13 200 0.0 0.0 0.00 0.00 0.00 47 1011.6
20260510022438 13 31 3.2 4.8 0.00 0.00 0.00 46 1011.7
20260510021938 13 195 0.0 0.0 0.00 0.00 0.00 47 1011.5
20260510021436 13 266 3.2 4.8 0.00 0.00 0.00 47 1011.4
20260510020932 13 297 8.0 11.3 0.00 0.00 0.00 46 1011.2
20260510020427 13 250 6.4 8.0 0.00 0.00 0.00 46 1011.2
20260510015923 14 225 4.8 8.0 0.00 0.00 0.00 46 1011.1
20260510015419 14 203 6.4 8.0 0.00 0.00 0.00 45 1010.6
20260510014914 14 287 9.7 14.5 0.00 0.00 0.00 45 1010.5
20260510014412 14 184 6.4 8.0 0.00 0.00 0.00 44 1010.6
20260510013908 14 328 3.2 4.8 0.00 0.00 0.00 45 1010.3
20260510013403 14 262 4.8 8.0 0.00 0.00 0.00 44 1010.2
20260510012858 14 339 9.7 11.3 0.00 0.00 0.00 43 1009.9
20260510012353 15 187 6.4 11.3 0.00 0.00 0.00 43 1009.8
20260510011848 15 13 3.2 4.8 0.00 0.00 0.00 43 1009.8
20260510011344 15 34 6.4 16.1 0.00 0.00 0.00 42 1009.5
20260510010840 15 165 4.8 8.0 0.00 0.00 0.00 42 1009.6
20260510010338 15 197 1.6 3.2 0.00 0.00 0.00 41 1009.3
20260510005834 15 200 9.7 14.5 0.00 0.00 0.00 41 1009.3
20260510005330 15 299 8.0 11.3 0.00 0.00 0.00 41 1009.3
20260510004828 15 33 16.1 19.3 0.00 0.00 0.00 40 1009.0
20260510004326 16 301 11.3 19.3 0.00 0.00 0.00 39 1008.7
20260510003823 16 338 11.3 14.5 0.00 0.00 0.00 39 1008.6
20260510003320 16 325 14.5 19.3 0.00 0.00 0.00 38 1008.3
20260510002819 17 258 4.8 4.8 0.00 0.00 0.00 39 1008.4
20260510002316 17 242 9.7 14.5 0.00 0.00 0.00 39 1008.1
20260510001812 17 205 6.4 8.0 0.00 0.00 0.00 39 1007.9
20260510001311 17 273 8.0 11.3 0.00 0.00 0.00 39 1007.8
20260510000806 17 268 4.8 4.8 0.00 0.00 0.00 40 1008.1
20260510000305 17 247 1.6 3.2 0.00 0.00 0.00 40 1007.8
20260509235801 17 262 3.2 4.8 0.00 0.00 0.00 40 1007.6
20260509235257 17 225 14.5 19.3 0.00 0.00 0.00 40 1007.5
20260509234753 17 276 6.4 8.0 0.00 0.00 0.00 40 1007.5
20260509234250 17 202 12.9 19.3 0.00 0.00 0.00 39 1007.3
20260509233749 17 258 9.7 14.5 0.00 0.00 0.00 40 1007.5
20260509233246 17 270 11.3 14.5 0.00 0.00 0.00 39 1007.4
20260509232742 17 292 9.7 11.3 0.00 0.00 0.00 38 1007.4
20260509232239 17 221 14.5 19.3 0.00 0.00 0.00 38 1007.5
20260509231735 17 286 14.5 24.1 0.00 0.00 0.00 38 1007.3
20260509231232 17 230 11.3 16.1 0.00 0.00 0.00 38 1007.2
20260509230730 17 292 14.5 16.1 0.00 0.00 0.00 38 1007.3
20260509230227 17 265 12.9 19.3 0.00 0.00 0.00 38 1007.0
20260509225722 18 244 11.3 14.5 0.00 0.00 0.00 38 1007.1
20260509225218 18 253 8.0 14.5 0.00 0.00 0.00 36 1006.8
20260509224714 17 3 24.1 33.8 0.00 0.00 0.00 37 1006.9
20260509224211 17 295 25.7 30.6 0.00 0.00 0.00 38 1007.0
20260509223708 17 263 4.8 4.8 0.00 0.00 0.00 39 1006.8
20260509223205 18 278 11.3 19.3 0.00 0.00 0.00 39 1006.6
20260509222702 18 284 25.7 30.6 0.00 0.00 0.00 38 1006.7
20260509222157 18 287 14.5 19.3 0.00 0.00 0.00 37 1006.7
20260509221653 18 247 19.3 24.1 0.00 0.00 0.00 37 1006.6
20260509221149 19 289 22.5 30.6 0.00 0.00 0.00 37 1006.3
20260509220646 18 275 17.7 24.1 0.00 0.00 0.00 37 1006.2
20260509220142 18 253 17.7 19.3 0.00 0.00 0.00 37 1006.5
20260509215638 18 270 27.4 35.4 0.00 0.00 0.00 37 1006.3
20260509215135 19 271 17.7 22.5 0.00 0.00 0.00 36 1006.2
20260509214632 19 250 11.3 16.1 0.00 0.00 0.00 36 1005.9
20260509214128 19 287 29.0 35.4 0.00 0.00 0.00 35 1005.9
20260509213625 18 216 38.6 57.9 0.00 0.00 0.00 35 1005.8
20260509213121 18 256 25.7 33.8 0.00 0.00 0.00 35 1005.7
20260509212619 19 293 25.7 30.6 0.00 0.00 0.00 36 1005.9
20260509212116 19 285 14.5 19.3 0.00 0.00 0.00 37 1005.5
20260509211611 19 217 17.7 33.8 0.00 0.00 0.00 37 1005.7
20260509211108 18 278 11.3 16.1 0.00 0.00 0.00 38 1005.6
20260509210605 18 257 9.7 11.3 0.00 0.00 0.00 38 1005.8
20260509205602 19 291 8.0 11.3 0.00 0.00 0.00 37 1005.7
20260509205057 19 269 14.5 19.3 0.00 0.00 0.00 37 1005.7